Marty Baskerville — WDC8730 — position and weather

sailwx.info

Track history (hours):
 
Tides and Currents Weather Stations Pressure Air Temp Water Temp Dewpoint Dewpoint Depression Visibility Wind Speed Wind Dir Waves Ship Positions

Marty Baskerville

Owner: Ingram Barge Company LLC, NASHVILLE, TN. More information available from US FCC via Universal Licensing System and Coast Guard Vessel Documentation Center.

Last reported at 2017-Nov-24 14:30 UTC. Time now 2017-Nov-24 14:59 UTC.
Position N 32°08' W 091°06'.

Length 60 m.

Type: Towing. MMSI: 367092230.

Date/timePositionNaut miles runAvg speedWind from/ knotsBaromVisibWave heightAir tempDewpointWater temp
2017-Nov-24 14:30N 32°08' W 091°06'2 3.2
2017-Nov-24 14:00N 32°08' W 091°04'0 0.1
2017-Nov-24 11:25N 32°08' W 091°04'0 0.0
2017-Nov-24 10:59N 32°08' W 091°04'0 0.0
2017-Nov-24 10:18N 32°08' W 091°04'0 0.0
2017-Nov-24 09:20N 32°08' W 091°04'0 0.3
2017-Nov-24 09:00N 32°08' W 091°04'3 5.6
2017-Nov-24 08:30N 32°08' W 091°01'4 8.3
2017-Nov-24 08:00N 32°11' W 090°60'4 8.8
2017-Nov-24 07:30N 32°16' W 090°58'4 7.8
2017-Nov-24 07:00N 32°18' W 090°55'2 4.2
2017-Nov-24 06:30N 32°20' W 090°54'3 6.8
2017-Nov-24 06:00N 32°21' W 090°58'3 6.1
2017-Nov-24 05:31N 32°24' W 090°59'4 7.7
2017-Nov-24 05:00N 32°26' W 091°03'4 8.3
2017-Nov-24 04:30N 32°29' W 091°07'4 8.6
2017-Nov-24 04:00N 32°33' W 091°06'4 8.4
2017-Nov-24 03:30N 32°36' W 091°09'  
2017-Nov-14 16:04N 32°41' W 091°04'2 3.9
2017-Nov-14 15:33N 32°40' W 091°06'1 4.7
2017-Nov-14 15:24N 32°40' W 091°07'2 3.8
2017-Nov-14 14:51N 32°39' W 091°09'  
Track history (hours):
 
Tides and Currents Weather Stations Pressure Air Temp Water Temp Dewpoint Dewpoint Depression Visibility Wind Speed Wind Dir Waves Ship Positions

Marty Baskerville

Owner: Ingram Barge Company LLC, NASHVILLE, TN. More information available from US FCC via Universal Licensing System and Coast Guard Vessel Documentation Center.

Last reported at 2017-Nov-24 14:30 UTC. Time now 2017-Nov-24 14:59 UTC.
Position N 32°08' W 091°06'.

Length 60 m.

Type: Towing. MMSI: 367092230.

Date/timePositionNaut miles runAvg speedWind from/ knotsBaromVisibWave heightAir tempDewpointWater temp
2017-Nov-24 14:30N 32°08' W 091°06'2 3.2
2017-Nov-24 14:00N 32°08' W 091°04'0 0.1
2017-Nov-24 11:25N 32°08' W 091°04'0 0.0
2017-Nov-24 10:59N 32°08' W 091°04'0 0.0
2017-Nov-24 10:18N 32°08' W 091°04'0 0.0
2017-Nov-24 09:20N 32°08' W 091°04'0 0.3
2017-Nov-24 09:00N 32°08' W 091°04'3 5.6
2017-Nov-24 08:30N 32°08' W 091°01'4 8.3
2017-Nov-24 08:00N 32°11' W 090°60'4 8.8
2017-Nov-24 07:30N 32°16' W 090°58'4 7.8
2017-Nov-24 07:00N 32°18' W 090°55'2 4.2
2017-Nov-24 06:30N 32°20' W 090°54'3 6.8
2017-Nov-24 06:00N 32°21' W 090°58'3 6.1
2017-Nov-24 05:31N 32°24' W 090°59'4 7.7
2017-Nov-24 05:00N 32°26' W 091°03'4 8.3
2017-Nov-24 04:30N 32°29' W 091°07'4 8.6
2017-Nov-24 04:00N 32°33' W 091°06'4 8.4
2017-Nov-24 03:30N 32°36' W 091°09'  
2017-Nov-14 16:04N 32°41' W 091°04'2 3.9
2017-Nov-14 15:33N 32°40' W 091°06'1 4.7
2017-Nov-14 15:24N 32°40' W 091°07'2 3.8
2017-Nov-14 14:51N 32°39' W 091°09'  

Dump ship's entire track history